Location: *
(46.3500°N, 10.9000°E)
Time: 21:55:17
(UTC+00:00)

Explorer 7 - Pass Details

Date: 19 April 2021
Orbit: 484 x 677 km, 50.3° (Epoch: 13 May)

Event Time Altitude Azimuth Distance (km) Brightness Sun altitude
Rises 20:29:45 0° 251° (WSW) 2,661 10.6 -21.3°
Reaches altitude 10° 20:31:55 10° 252° (WSW) 1,802 9.7 -21.6°
Maximum altitude 20:36:01 78° 340° (NNW) 583 6.9 -22.0°
Enters shadow 20:37:32 39° 59° (ENE) 867 7.6 -22.2°
Drops below altitude 10° 20:40:26 10° 67° (ENE) 1,930 - -22.6°
Sets 20:42:48 0° 68° (ENE) 2,869 - -22.8°
